Weather in Samarkand

Uzbekistan     39°39′16″N   66°58′07″E
temp.,
°C
wind,
m/s
gust,
m/s
humid.,
%
clouds,
%
prec.,
mm/h
press.,
hPa
HPBL,
m
18 august, thu
thu1823:00+25ene34160 0.0 1006225
02:00+23ene36190 0.0 1006210
05:00+22e35200 0.0 1006148
08:00+25e34150 0.0 1007386
11:00+31ene33100 0.0 10051081
14:00+34ene3290 0.0 10031838
17:00+33ene6590 0.0 10031785
20:00+28ene49120 0.0 1004559
19 august, fri
fri1923:00+24e34150 0.0 1004204
02:00+22e35180 0.0 1004151
05:00+21e35190 0.0 1005152
08:00+24e35150 0.0 1006392
11:00+30ene34100 0.0 10051165
14:00+33ene5480 0.0 10041922
17:00+33ne66100 0.0 10042085
20:00+28ne611140 0.0 1005677
20 august, sat
sat2023:00+24ene48180 0.0 1007402
02:00+21ene38210 0.0 1007335
05:00+20ene49260 0.0 1008324
08:00+22ene511210 0.0 1009803
11:00+27ene66170 0.0 10081237
14:00+29ene65150 0.0 10071815
17:00+28ne88170 0.0 10061836
20:00+24ne611150 0.0 1008788
21 august, sun
sun2123:00+21ne49240 0.0 1009515
02:00+18ene48280 0.0 1008293
05:00+17e36310 0.0 1009224
08:00+20e35260 0.0 1010501
11:00+25ene44160 0.0 10091145
14:00+29ene32110 0.0 10081966
17:00+28ene75110 0.0 10081862
20:00+23ne59140 0.0 1011616
22 august, mon
mon2223:00+20ne36190 0.0 1012323
02:00+18ene46240 0.0 1012237
05:00+16e35280 0.0 1012183
08:00+19e35220 0.0 1013418
11:00+26ene44100 0.0 10121081
14:00+29ene5470 0.0 10101747
17:00+29ne7780 0.0 10101756
20:00+23ne49110 0.0 1010472